| time (UTC) | temp C | wind direction | speed KPH | gust KPH | rain 1hr cm | rain 24hr cm | rain mn cm | humidity % | barometer mb |
| 20260503050053 | -17 | 0.0 | 0.0 | 0.00 | 0.71 | 0.33 | 1010.3 | ||
| 20260503044609 | -17 | 0.0 | 0.0 | 0.00 | 0.71 | 0.33 | 1010.3 | ||
| 20260503043057 | -17 | 0.0 | 0.0 | 0.00 | 0.71 | 0.33 | 1010.5 | ||
| 20260503041548 | -17 | 0.0 | 0.0 | 0.00 | 0.71 | 0.33 | 1010.4 | ||
| 20260503034509 | -17 | 0.0 | 0.0 | 0.00 | 0.71 | 0.33 | 1010.6 | ||
| 20260503033035 | -17 | 0.0 | 0.0 | 0.00 | 0.71 | 0.33 | 1010.6 | ||
| 20260503031534 | -17 | 0.0 | 0.0 | 0.00 | 0.71 | 0.33 | 1010.7 | ||
| 20260503030054 | -17 | 0.0 | 0.0 | 0.00 | 0.71 | 0.33 | 1010.7 | ||
| 20260503024535 | -17 | 0.0 | 0.0 | 0.03 | 0.71 | 0.33 | 1010.6 | ||
| 20260503023041 | -17 | 0.0 | 0.0 | 0.03 | 0.71 | 0.33 | 1010.9 | ||
| 20260503021531 | -17 | 27 | 1.6 | 4.8 | 0.05 | 0.71 | 0.33 | 94 | 1011.1 |
| 20260503014547 | 11 | 8 | 0.0 | 3.2 | 0.05 | 0.71 | 0.30 | 94 | 1011.4 |
| 20260503011529 | 11 | 356 | 0.0 | 1.6 | 0.10 | 0.69 | 0.28 | 94 | 1011.6 |
| 20260503010019 | 11 | 359 | 0.0 | 0.0 | 0.10 | 0.66 | 0.25 | 94 | 1011.7 |
| 20260503004516 | 10 | 359 | 0.0 | 0.0 | 0.13 | 0.64 | 0.23 | 94 | 1011.8 |
| 20260503003010 | 10 | 359 | 0.0 | 0.0 | 0.13 | 0.61 | 0.23 | 94 | 1011.9 |
| 20260503001520 | 10 | 359 | 0.0 | 0.0 | 0.13 | 0.58 | 0.18 | 94 | 1012.0 |
| 20260503000031 | 10 | 359 | 0.0 | 0.0 | 0.15 | 0.56 | 0.15 | 94 | 1012.2 |
| 20260502234523 | 10 | 359 | 0.0 | 1.6 | 0.18 | 0.51 | 0.13 | 94 | 1012.3 |
| 20260502233029 | 10 | 6 | 0.0 | 1.6 | 0.20 | 0.51 | 0.10 | 93 | 1012.4 |
| 20260502231526 | 10 | 8 | 0.0 | 3.2 | 0.23 | 0.46 | 0.05 | 93 | 1012.5 |
| 20260502230033 | 10 | 8 | 0.0 | 3.2 | 0.20 | 0.41 | 0.41 | 93 | 1012.5 |
| 20260502224538 | 11 | 7 | 0.0 | 3.2 | 0.18 | 0.33 | 0.33 | 93 | 1012.5 |
| 20260502223035 | 11 | 321 | 0.0 | 3.2 | 0.15 | 0.30 | 0.30 | 92 | 1012.5 |
| 20260502221539 | 11 | 346 | 0.0 | 3.2 | 0.15 | 0.23 | 0.23 | 92 | 1012.5 |
| 20260502220044 | 11 | 318 | 0.0 | 1.6 | 0.13 | 0.20 | 0.20 | 91 | 1012.6 |
| 20260502214555 | 11 | 221 | 0.0 | 1.6 | 0.10 | 0.15 | 0.15 | 91 | 1012.7 |
| 20260502213041 | 11 | 207 | 0.0 | 0.0 | 0.10 | 0.15 | 0.15 | 91 | 1012.9 |
| 20260502211540 | 11 | 207 | 0.0 | 0.0 | 0.05 | 0.10 | 0.10 | 90 | 1013.0 |
| 20260502210042 | 11 | 207 | 0.0 | 1.6 | 0.05 | 0.08 | 0.08 | 90 | 1012.9 |
| 20260502204554 | 11 | 184 | 0.0 | 0.0 | 0.05 | 0.05 | 0.05 | 90 | 1013.1 |
| 20260502203110 | 11 | 184 | 0.0 | 1.6 | 0.03 | 0.05 | 0.05 | 89 | 1013.2 |
| 20260502201556 | 11 | 30 | 0.0 | 1.6 | 0.03 | 0.05 | 0.05 | 88 | 1013.2 |
| 20260502200004 | 11 | 35 | 0.0 | 1.6 | 0.05 | 0.05 | 0.05 | 88 | 1013.2 |
| 20260502194556 | 11 | 7 | 0.0 | 1.6 | 0.03 | 0.03 | 0.03 | 87 | 1013.3 |
| 20260502193046 | 12 | 68 | 0.0 | 3.2 | 0.03 | 0.03 | 0.03 | 87 | 1013.2 |
| 20260502191556 | 12 | 4 | 0.0 | 3.2 | 0.03 | 0.03 | 0.03 | 87 | 1013.2 |
| 20260502190054 | 12 | 31 | 0.0 | 3.2 | 0.00 | 0.00 | 0.00 | 86 | 1013.2 |
| 20260502184602 | 12 | 352 | 1.6 | 6.4 | 0.00 | 0.00 | 0.00 | 84 | 1013.1 |
| 20260502183101 | 12 | 30 | 1.6 | 6.4 | 0.00 | 0.00 | 0.00 | 81 | 1013.1 |
| 20260502181614 | 12 | 21 | 1.6 | 8.0 | 0.00 | 0.00 | 0.00 | 79 | 1013.2 |
| 20260502163041 | 13 | 41 | 4.8 | 14.5 | 0.00 | 0.00 | 0.00 | 75 | 1013.4 |
| 20260502161545 | 13 | 71 | 3.2 | 12.9 | 0.00 | 0.00 | 0.00 | 75 | 1013.6 |
| 20260502151600 | 13 | 57 | 3.2 | 14.5 | 0.00 | 0.00 | 0.00 | 76 | 1014.2 |
| 20260502123048 | 15 | 10 | 4.8 | 11.3 | 0.00 | 0.00 | 0.00 | 74 | 1015.9 |
| 20260502121542 | 14 | 51 | 4.8 | 11.3 | 0.00 | 0.00 | 0.00 | 75 | 1016.2 |
| 20260502114539 | 15 | 30 | 1.6 | 12.9 | 0.00 | 0.13 | 0.00 | 76 | 1016.6 |
| 20260502113040 | 15 | 16 | 4.8 | 9.7 | 0.00 | 0.13 | 0.00 | 74 | 1016.6 |
| 20260502111551 | 14 | 352 | 4.8 | 8.0 | 0.00 | 0.13 | 0.00 | 76 | 1016.7 |
| 20260502110100 | 14 | 34 | 3.2 | 8.0 | 0.00 | 0.13 | 0.00 | 76 | 1016.8 |
| 20260502104507 | 14 | 56 | 4.8 | 11.3 | 0.00 | 0.13 | 0.00 | 76 | 1016.8 |
| 20260502103018 | 13 | 27 | 1.6 | 11.3 | 0.00 | 0.13 | 0.00 | 77 | 1016.7 |
| 20260502101504 | 13 | 85 | 1.6 | 6.4 | 0.00 | 0.13 | 0.00 | 78 | 1016.8 |
| 20260502100104 | 13 | 65 | 3.2 | 8.0 | 0.00 | 0.13 | 0.00 | 78 | 1017.2 |
| 20260502091510 | 13 | 275 | 3.2 | 6.4 | 0.00 | 0.13 | 0.00 | 75 | 1017.4 |
| 20260502080106 | 12 | 224 | 1.6 | 8.0 | 0.00 | 0.13 | 0.00 | 80 | 1017.5 |
| 20260502071507 | 11 | 106 | 3.2 | 6.4 | 0.00 | 0.13 | 0.00 | 82 | 1017.6 |
| 20260502070002 | 12 | 200 | 0.0 | 4.8 | 0.00 | 0.13 | 0.00 | 82 | 1017.7 |
| 20260502064534 | 12 | 150 | 1.6 | 4.8 | 0.00 | 0.13 | 0.00 | 81 | 1017.5 |
| 20260502063006 | 11 | 135 | 0.0 | 3.2 | 0.00 | 0.13 | 0.00 | 85 | 1017.4 |
| 20260502061502 | 10 | 108 | 1.6 | 3.2 | 0.00 | 0.13 | 0.00 | 87 | 1017.3 |
| 20260502060101 | 9 | 117 | 1.6 | 4.8 | 0.00 | 0.13 | 0.00 | 87 | 1017.4 |
| 20260502054512 | 8 | 102 | 1.6 | 4.8 | 0.00 | 0.13 | 0.00 | 89 | 1017.4 |
| 20260502053017 | 8 | 103 | 1.6 | 4.8 | 0.00 | 0.13 | 0.00 | 89 | 1017.5 |
| 20260502051512 | -17 | 0.0 | 0.0 | 0.00 | 0.13 | 0.00 | 1017.5 |